This is the latest recevied weather packets stored in our database for station/object AE5PL. If no packets are shown the sender has not sent any weather packets the latest 10 day(s).
| Time | Temp. | Humidity | Pressure | Rain* | Wind** | Luminosity | Snow |
|---|---|---|---|---|---|---|---|
| 1778182951 | 22.22° C | 47% | 1016.6 hPa | - | - | - | - |
| 1778182651 | 22.22° C | 45% | 1016.7 hPa | - | - | - | - |
| 1778182351 | 22.22° C | 49% | 1016.8 hPa | - | - | - | - |
| 1778182051 | 22.22° C | 47% | 1016.8 hPa | - | - | - | - |
| 1778181751 | 21.67° C | 48% | 1016.9 hPa | - | - | - | - |
| 1778181451 | 21.67° C | 51% | 1017 hPa | - | - | - | - |
| 1778181151 | 21.67° C | 50% | 1017 hPa | - | - | - | - |
| 1778180851 | 21.11° C | 49% | 1017.2 hPa | - | - | - | - |
| 1778180551 | 21.11° C | 48% | 1017.2 hPa | - | - | - | - |
| 1778180251 | 21.11° C | 50% | 1017.2 hPa | - | - | - | - |
| 1778179951 | 21.11° C | 51% | 1017.2 hPa | - | - | - | - |
| 1778179651 | 21.11° C | 50% | 1017.3 hPa | - | - | - | - |
| 1778179351 | 21.11° C | 52% | 1017.3 hPa | - | - | - | - |
| 1778179051 | 21.11° C | 51% | 1017.4 hPa | - | - | - | - |
| 1778178751 | 21.11° C | 53% | 1017.5 hPa | - | - | - | - |
| 1778178451 | 20.56° C | 53% | 1017.7 hPa | - | - | - | - |
| 1778178151 | 20.56° C | 53% | 1017.8 hPa | - | - | - | - |
| 1778177851 | 20.56° C | 52% | 1017.8 hPa | - | - | - | - |
| 1778177551 | 20.56° C | 52% | 1017.9 hPa | - | - | - | - |
| 1778177251 | 20° C | 54% | 1018.1 hPa | - | - | - | - |
| 1778176951 | 20.56° C | 54% | 1018.1 hPa | - | - | - | - |
| 1778176651 | 20° C | 55% | 1018.2 hPa | - | - | - | - |
| 1778176351 | 19.44° C | 54% | 1018.4 hPa | - | - | - | - |
| 1778176051 | 20° C | 52% | 1018.4 hPa | - | - | - | - |
| 1778175751 | 20° C | 55% | 1018.5 hPa | - | - | - | - |
* Rain since midnight (hover to see other rain measurements)
** Current wind speed in m/s (hover to see current wind gust speed)